Wind_Speed
14 13 12 12 12 12 12 11 10 9 9 9 8 9 9 8 8 8 9 9 8 8 8 8 8 8 7 6 6 6 5 6 5 5 6 6 7 7 7 7 7 8 8
15 14 14 13 12 12 12 11 11 10 10 10 9 9 9 9 10 10 9 9 9 10 10 9 9 9 8 6 6 6 6 6 6 6 6 6 6 6 7 8 7 7 8
14 13 14 14 14 12 12 12 12 12 12 10 11 11 11 11 11 11 11 10 10 10 10 10 10 9 8 6 6 6 6 6 6 6 6 6 7 7 7 7 8 8 9
17 15 15 14 14 13 13 13 12 13 12 11 12 12 12 12 12 13 13 12 12 11 11 11 11 10 9 9 8 8 8 8 7 7 7 7 8 8 9 9 8 9 9
17 15 15 15 15 14 14 13 14 14 14 13 14 14 14 14 14 15 15 15 14 13 12 11 11 11 11 10 10 10 10 9 9 9 9 9 8 9 9 9 9 9 10
18 17 16 16 16 15 15 14 15 14 15 15 15 16 16 16 16 16 16 16 15 15 14 13 13 12 12 12 11 11 11 12 11 11 11 11 10 10 11 11 10 10 10
20 20 17 17 17 16 16 16 16 16 16 16 17 17 18 18 18 18 17 16 16 16 15 15 14 13 13 13 13 12 13 13 13 13 13 13 13 13 12 12 12 11 11
20 21 20 19 18 18 18 18 17 17 17 17 18 19 20 20 20 19 18 18 17 17 17 17 16 15 15 15 14 14 15 14 15 15 15 14 14 13 13 13 13 13 12
20 20 21 20 19 19 19 19 19 19 19 20 20 20 20 21 21 20 20 19 19 19 19 18 17 17 16 17 16 16 16 16 16 15 15 15 15 15 15 14 14 14 13
21 21 22 22 21 20 20 21 21 21 21 21 22 21 21 21 21 20 20 20 20 21 20 19 19 19 18 18 18 18 17 18 17 16 16 16 16 16 15 15 15 16 15
21 21 22 24 24 22 22 22 22 23 23 23 22 22 22 22 21 21 21 21 21 21 21 21 21 20 20 19 19 19 18 18 17 17 17 17 17 17 17 17 17 17 17
22 22 23 24 23 22 23 23 24 24 24 23 22 22 22 21 21 20 20 20 21 20 20 20 21 21 22 22 21 20 19 19 18 18 18 18 19 19 19 19 19 19 19
23 24 23 24 23 23 24 25 25 25 24 23 23 22 22 22 21 21 21 21 21 20 21 21 21 21 21 21 21 21 21 21 20 20 20 20 20 20 20 20 20 20 19
23 24 24 24 24 24 25 25 26 25 25 24 23 22 22 22 22 22 22 22 22 21 21 21 21 21 21 21 20 21 22 22 23 22 22 22 22 21 21 21 21 21 21
24 24 24 25 25 25 26 25 26 25 24 24 23 23 23 23 23 23 23 23 23 23 23 23 23 23 22 22 22 22 22 22 23 23 23 23 22 23 23 22 22 22 23
25 26 26 26 26 27 26 26 26 25 25 24 25 25 24 24 24 23 23 23 23 24 24 24 24 24 23 23 23 23 23 24 24 24 24 24 24 24 24 24 24 24 25
26 27 27 28 28 28 27 27 26 26 25 24 25 25 26 25 25 25 25 24 25 25 25 25 25 24 24 24 24 24 24 24 25 25 24 25 25 25 25 25 25 25 25
27 27 27 28 28 28 27 27 26 26 26 26 25 25 26 25 25 25 25 25 25 25 25 26 26 25 25 25 25 25 25 24 24 24 24 25 25 26 26 25 25 25 26
28 28 28 29 28 28 27 26 26 26 26 26 27 27 27 27 26 25 25 26 26 26 27 27 27 26 26 25 25 25 25 25 24 24 25 25 25 25 26 25 25 26 26
28 28 28 28 28 28 28 28 27 26 27 27 26 26 27 27 27 27 26 26 27 27 27 27 27 27 26 25 25 25 25 25 25 25 26 26 27 27 26 26 27 27 27
27 27 27 27 27 27 27 27 26 26 27 27 27 26 27 28 28 28 27 27 27 26 26 27 27 26 25 25 25 25 25 25 26 26 26 27 27 27 27 27 27 27 26
25 26 27 26 26 26 26 27 26 26 27 27 27 26 26 28 29 29 28 27 27 26 26 26 26 26 26 25 24 24 24 25 25 26 27 27 27 26 27 27 27 27 27
26 27 27 27 26 25 25 25 24 25 25 25 25 25 26 27 28 29 29 27 27 27 26 26 26 25 25 25 24 24 24 24 25 26 26 26 27 28 28 28 27 27 27
27 26 27 27 26 25 25 24 24 24 25 26 25 26 26 27 28 28 28 28 28 27 27 26 26 26 25 24 24 24 23 24 25 25 25 25 25 25 25 26 27 28 28
26 25 26 26 26 25 25 25 25 26 26 26 27 27 28 29 29 29 28 27 28 28 28 27 26 26 25 25 25 25 25 25 25 25 25 24 24 25 25 25 26 26 27
25 25 25 26 26 26 26 26 27 26 27 27 27 27 27 27 27 27 27 27 26 27 27 26 25 25 25 25 25 24 24 24 24 24 23 23 23 24 25 25 25 26 26
Wind_Direction
305 309 311 313 313 315 315 314 309 312 315 316 319 325 326 328 324 321 326 328 328 328 327 320 317 316 314 310 308 312 309 301 295 289 294 293 286 276 275 270 267 268 268
298 302 305 305 306 306 308 308 305 304 304 305 308 314 317 317 319 323 322 323 325 324 321 315 317 316 312 305 303 303 306 302 289 287 287 295 287 278 277 275 270 268 270
291 293 298 301 307 305 306 305 302 301 300 298 301 304 307 307 310 315 318 316 314 317 317 314 314 312 310 305 303 300 300 302 293 286 287 286 282 278 280 275 271 273 273
287 287 289 295 298 299 300 298 297 299 298 294 295 297 300 302 304 306 307 307 307 310 310 307 306 306 301 297 294 295 294 295 294 290 282 281 281 277 273 268 270 274 272
278 279 285 290 292 293 292 291 292 294 292 288 290 292 294 297 300 301 301 299 298 301 305 301 298 298 296 293 291 288 286 288 287 288 287 287 284 283 277 267 265 269 274
275 278 282 286 288 286 287 288 289 290 290 289 289 289 289 291 294 298 298 295 293 295 299 300 297 297 294 291 288 286 282 284 284 284 284 286 287 286 283 278 275 275 275
274 277 279 283 285 284 281 282 283 285 285 287 287 286 286 286 288 292 293 294 293 293 295 296 295 293 293 288 285 284 283 281 280 279 279 280 281 281 281 278 279 278 276
277 278 280 281 281 283 282 280 280 280 281 284 284 282 282 283 284 286 288 290 292 291 291 293 291 288 287 286 284 283 282 281 279 278 277 278 278 279 279 278 279 277 276
273 275 275 277 279 281 283 284 280 279 280 280 282 281 280 280 280 281 284 285 286 287 287 287 286 284 281 281 280 279 280 282 279 277 277 277 277 279 278 278 277 277 277
269 271 274 277 280 280 282 283 281 279 279 279 280 281 281 278 277 278 279 281 282 283 284 283 283 281 278 277 277 276 277 278 278 277 278 278 277 276 276 277 276 276 275
272 274 275 277 279 280 280 279 279 280 280 279 280 280 281 280 278 277 276 277 279 281 280 279 280 278 276 275 275 276 276 276 276 275 275 276 275 274 275 276 277 276 273
276 276 277 277 279 280 282 282 282 281 280 279 278 278 278 279 279 276 274 276 277 278 278 279 279 278 279 276 277 276 275 274 274 275 274 272 273 272 271 272 274 274 271
276 277 278 278 277 278 282 282 281 279 279 279 278 276 275 276 278 275 273 274 275 276 277 278 279 278 280 278 276 274 273 273 271 272 272 272 273 273 270 269 270 270 270
276 277 277 278 276 276 280 279 280 279 278 277 274 272 273 274 275 275 273 273 275 276 277 279 278 277 276 274 274 276 274 272 271 271 271 271 270 270 269 268 268 269 270
275 276 278 278 277 278 280 279 277 279 279 276 273 271 270 271 272 272 272 273 274 274 275 276 277 277 275 273 271 272 273 272 271 269 268 269 269 269 268 269 268 270 270
279 278 279 280 280 281 282 281 278 278 279 277 272 270 269 270 271 271 272 272 272 272 273 275 276 276 274 272 270 271 271 270 269 268 266 267 268 268 270 271 271 271 270
278 280 280 280 280 279 279 280 280 280 277 274 272 271 270 270 270 271 271 270 272 271 272 274 274 274 274 272 271 271 271 270 269 266 265 266 268 269 269 271 272 272 271
276 278 280 280 279 278 279 279 280 280 278 275 272 271 270 269 270 271 272 273 272 270 272 274 274 274 274 272 271 271 271 270 268 266 265 265 267 267 268 270 271 273 273
274 275 277 279 278 279 281 280 279 281 281 279 274 269 268 268 269 269 270 272 273 273 273 274 276 276 274 272 271 271 269 268 268 266 264 265 267 267 268 269 270 272 273
275 277 278 279 277 279 280 279 278 279 280 279 274 269 269 268 267 269 269 271 274 274 274 274 278 277 274 272 271 269 268 266 266 266 266 267 266 266 267 269 270 271 271
276 276 277 277 277 278 279 280 279 279 281 279 275 273 271 269 268 268 271 272 273 273 274 274 276 277 275 273 272 270 268 266 265 265 266 267 266 266 267 269 270 270 271
277 276 277 277 278 278 279 279 280 281 282 282 278 276 274 270 270 269 270 271 273 273 274 273 275 275 274 272 272 271 270 268 265 265 266 266 266 268 270 269 269 269 270
278 277 278 278 279 279 279 279 280 282 284 285 281 280 278 274 272 272 269 269 271 272 273 273 275 274 273 272 272 272 270 269 266 266 267 267 267 268 269 268 268 269 271
279 278 277 278 278 279 281 281 282 282 283 283 281 279 278 278 274 273 271 268 268 269 272 272 273 274 274 274 272 271 270 269 268 267 265 266 268 269 270 269 270 271 271
280 278 278 279 278 278 279 281 282 282 282 281 280 279 279 278 277 275 272 269 268 268 269 270 270 272 274 274 272 269 270 268 266 266 265 264 266 269 271 272 272 272 273
280 279 279 279 279 278 278 279 280 281 281 281 281 281 281 280 277 275 273 269 268 267 267 268 269 271 273 273 273 270 268 266 265 266 265 265 268 271 273 273 273 274 275
Height
5887 5887 5886 5885 5884 5883 5882 5881 5880 5879 5879 5878 5877 5877 5875 5874 5873 5872 5871 5870 5869 5868 5867 5866 5865 5863 5862 5861 5860 5860 5859 5859 5858 5858 5857 5857 5856 5856 5856 5856 5856 5856 5856
5884 5884 5884 5883 5882 5880 5879 5879 5878 5878 5877 5876 5875 5875 5874 5873 5872 5870 5869 5868 5867 5866 5865 5864 5863 5862 5861 5860 5859 5858 5858 5857 5857 5856 5856 5855 5855 5854 5854 5854 5854 5854 5854
5881 5881 5881 5881 5880 5878 5877 5877 5876 5875 5875 5874 5873 5872 5872 5871 5870 5869 5868 5867 5866 5864 5863 5862 5861 5860 5859 5858 5857 5856 5856 5855 5855 5854 5854 5854 5853 5853 5852 5852 5852 5852 5852
5879 5878 5878 5878 5877 5876 5875 5874 5873 5873 5872 5872 5871 5870 5869 5868 5867 5866 5865 5864 5863 5862 5861 5860 5859 5858 5856 5856 5855 5854 5854 5854 5853 5853 5852 5852 5851 5851 5851 5850 5850 5850 5849
5875 5875 5875 5875 5874 5873 5872 5871 5870 5870 5869 5868 5868 5867 5866 5865 5864 5863 5862 5861 5860 5860 5858 5857 5856 5855 5854 5853 5852 5852 5852 5851 5851 5851 5850 5849 5849 5849 5849 5848 5848 5848 5847
5871 5870 5871 5871 5870 5869 5869 5868 5867 5866 5866 5865 5864 5863 5862 5862 5861 5860 5859 5858 5857 5856 5855 5854 5853 5852 5851 5850 5850 5849 5849 5848 5848 5848 5847 5847 5846 5846 5846 5845 5845 5845 5844
5866 5865 5866 5866 5865 5865 5865 5864 5863 5862 5861 5861 5860 5859 5858 5857 5857 5856 5855 5854 5853 5852 5851 5850 5849 5849 5848 5847 5847 5846 5845 5845 5844 5844 5844 5843 5843 5843 5842 5842 5842 5841 5841
5861 5861 5860 5860 5861 5860 5860 5859 5858 5857 5857 5856 5855 5854 5853 5853 5852 5851 5850 5850 5849 5848 5847 5846 5845 5845 5844 5844 5843 5842 5842 5841 5840 5840 5839 5839 5839 5839 5839 5838 5838 5838 5837
5855 5855 5855 5855 5855 5855 5854 5853 5853 5852 5851 5851 5850 5849 5848 5847 5847 5846 5845 5844 5844 5843 5842 5842 5841 5840 5840 5839 5839 5838 5837 5837 5836 5836 5835 5835 5835 5835 5834 5834 5834 5834 5833
5848 5848 5848 5849 5849 5849 5849 5848 5847 5847 5846 5845 5844 5843 5843 5842 5841 5840 5840 5839 5838 5837 5837 5836 5835 5835 5834 5834 5833 5833 5832 5832 5831 5831 5831 5830 5830 5830 5830 5829 5829 5829 5829
5841 5842 5842 5842 5842 5841 5842 5841 5841 5840 5839 5839 5838 5837 5836 5835 5835 5834 5834 5833 5832 5831 5831 5830 5830 5829 5828 5828 5828 5827 5827 5826 5826 5826 5825 5825 5825 5825 5825 5824 5824 5823 5823
5834 5834 5835 5835 5835 5835 5834 5834 5834 5833 5833 5832 5831 5830 5830 5829 5828 5828 5827 5827 5826 5826 5825 5824 5824 5823 5822 5822 5821 5821 5821 5821 5820 5820 5820 5819 5819 5819 5819 5819 5818 5818 5818
5828 5827 5828 5828 5829 5828 5828 5827 5826 5826 5825 5825 5824 5824 5823 5822 5822 5822 5821 5821 5820 5819 5819 5818 5817 5817 5816 5815 5815 5815 5815 5814 5814 5814 5813 5813 5813 5812 5812 5812 5812 5812 5812
5822 5822 5822 5822 5822 5822 5822 5821 5820 5818 5818 5817 5817 5817 5816 5816 5815 5815 5814 5814 5813 5812 5812 5811 5811 5810 5809 5809 5808 5808 5808 5808 5807 5807 5807 5806 5806 5806 5806 5806 5806 5806 5806
5817 5816 5816 5816 5815 5815 5815 5813 5812 5811 5810 5810 5809 5809 5809 5809 5808 5808 5807 5806 5806 5806 5805 5805 5804 5803 5803 5802 5801 5801 5801 5801 5800 5800 5799 5799 5799 5799 5799 5799 5799 5799 5799
5810 5810 5810 5809 5808 5808 5807 5806 5805 5804 5802 5801 5801 5801 5801 5801 5800 5800 5799 5799 5799 5798 5798 5798 5797 5796 5795 5795 5794 5794 5793 5793 5793 5792 5792 5792 5792 5792 5792 5792 5792 5792 5791
5803 5803 5802 5802 5801 5800 5799 5798 5797 5796 5795 5794 5794 5794 5794 5793 5793 5792 5792 5791 5791 5790 5790 5789 5789 5789 5788 5787 5786 5786 5786 5785 5785 5784 5784 5784 5784 5784 5784 5784 5784 5784 5783
5795 5795 5794 5793 5792 5792 5791 5790 5789 5788 5788 5787 5786 5786 5785 5785 5785 5784 5784 5783 5783 5782 5782 5782 5781 5780 5780 5779 5778 5778 5777 5777 5777 5776 5777 5777 5776 5776 5776 5776 5776 5776 5775
5788 5787 5786 5786 5784 5783 5783 5782 5781 5780 5779 5779 5778 5778 5777 5777 5776 5776 5776 5775 5775 5774 5774 5773 5773 5772 5771 5770 5770 5769 5769 5769 5768 5769 5769 5769 5768 5768 5768 5769 5768 5768 5767
5780 5779 5778 5777 5777 5776 5775 5774 5773 5772 5772 5770 5769 5769 5769 5768 5768 5767 5767 5766 5766 5766 5765 5765 5764 5763 5762 5762 5761 5761 5761 5760 5760 5760 5760 5760 5760 5760 5760 5760 5760 5760 5759
5772 5771 5770 5769 5769 5768 5767 5766 5765 5764 5763 5762 5761 5760 5760 5759 5759 5758 5758 5758 5757 5757 5756 5756 5755 5755 5754 5753 5753 5752 5752 5752 5751 5751 5751 5752 5752 5752 5752 5752 5752 5751 5751
5764 5763 5762 5761 5760 5760 5759 5758 5757 5756 5755 5754 5752 5751 5751 5751 5750 5749 5749 5749 5748 5748 5747 5747 5747 5746 5745 5745 5744 5743 5743 5743 5743 5743 5743 5743 5743 5743 5743 5743 5743 5743 5743
5757 5756 5755 5753 5752 5752 5751 5750 5749 5748 5747 5745 5744 5744 5743 5742 5741 5740 5740 5740 5740 5739 5739 5738 5738 5738 5737 5736 5736 5735 5735 5735 5735 5735 5735 5735 5735 5735 5735 5734 5735 5735 5734
5749 5748 5747 5746 5744 5743 5743 5742 5741 5740 5740 5739 5737 5736 5735 5733 5732 5731 5731 5730 5731 5730 5730 5730 5730 5729 5728 5728 5728 5727 5727 5727 5727 5727 5727 5727 5727 5727 5726 5726 5726 5726 5726
5741 5740 5739 5738 5737 5736 5735 5734 5733 5732 5731 5730 5729 5728 5726 5725 5723 5722 5722 5721 5721 5721 5721 5722 5721 5721 5721 5720 5719 5719 5719 5718 5718 5718 5718 5719 5719 5719 5718 5718 5718 5718 5717
5733 5732 5731 5730 5729 5728 5727 5726 5725 5724 5723 5722 5721 5719 5717 5715 5714 5713 5713 5712 5712 5712 5713 5713 5713 5712 5712 5712 5711 5711 5710 5710 5710 5710 5710 5711 5711 5710 5710 5710 5710 5709 5709